,,PA_Meas_PMT16A,,PR_Meas_QMR101_102,,RH_Meas_QMH101,,SR_Meas_QMS101,,TA_Meas_QMH101,,GenWind,,GenWind,
time,status,PA,status,PR,status,RH,status,SR,status,TA,status,DirAvg,status,SpdAvg,
2010-11-06, 00:00:04,VALID,917.918,VALID,0,VALID,95.1936,VALID,0.107441,VALID,19.0969,VALID,13,VALID,0.000390625,
2010-11-06, 00:01:04,VALID,917.949,VALID,0,VALID,95.1707,VALID,0,VALID,19.0774,VALID,13,VALID,0,
2010-11-06, 00:02:04,VALID,917.962,VALID,0,VALID,95.2088,VALID,0.107441,VALID,19.0384,VALID,13,VALID,0,
2010-11-06, 00:03:04,VALID,917.935,VALID,0,VALID,95.2088,VALID,0.107441,VALID,18.9994,VALID,13,VALID,0,
2010-11-06, 00:04:04,VALID,917.935,VALID,0,VALID,95.186,VALID,0,VALID,18.9994,VALID,13,VALID,0,
2010-11-06, 00:05:04,VALID,917.957,VALID,0,VALID,95.2546,VALID,0,VALID,18.9604,VALID,13,VALID,0.2875,
2010-11-06, 00:06:04,VALID,917.95,VALID,0,VALID,95.3156,VALID,0,VALID,18.9409,VALID,13,VALID,0,
2010-11-06, 00:07:04,VALID,917.939,VALID,0,VALID,95.4375,VALID,0,VALID,18.9409,VALID,13,VALID,0.350391,
2010-11-06, 00:08:04,VALID,917.937,VALID,0,VALID,95.5367,VALID,0,VALID,18.9214,VALID,13,VALID,0.536328,
2010-11-06, 00:09:04,VALID,917.951,VALID,0,VALID,95.3689,VALID,0.107441,VALID,18.8824,VALID,14,VALID,0.705078,
2010-11-06, 00:10:04,VALID,917.941,VALID,0,VALID,95.3461,VALID,0,VALID,18.8434,VALID,13,VALID,0.492578,
2010-11-06, 00:11:04,VALID,917.953,VALID,0,VALID,95.5443,VALID,0,VALID,18.8045,VALID,13,VALID,0.473437,
2010-11-06, 00:12:04,VALID,917.946,VALID,0,VALID,95.59,VALID,0,VALID,18.8045,VALID,14,VALID,0.337109,
2010-11-06, 00:13:04,VALID,917.921,VALID,0,VALID,95.5824,VALID,0,VALID,18.785,VALID,13,VALID,0.381641,
2010-11-06, 00:14:04,VALID,917.912,VALID,0,VALID,95.7501,VALID,0,VALID,18.824,VALID,14,VALID,0.578125,
2010-11-06, 00:15:04,VALID,917.894,VALID,0,VALID,95.8873,VALID,0,VALID,18.8644,VALID,13,VALID,0.419531,
2010-11-06, 00:16:04,VALID,917.886,VALID,0,VALID,95.9026,VALID,0.107441,VALID,18.8629,VALID,13,VALID,0,
2010-11-06, 00:17:04,VALID,917.879,VALID,0,VALID,95.895,VALID,0,VALID,18.8824,VALID,13,VALID,0,
2010-11-06, 00:18:04,VALID,917.862,VALID,0,VALID,95.7196,VALID,0,VALID,18.8434,VALID,14,VALID,0.53125,
2010-11-06, 00:19:04,VALID,917.821,VALID,0,VALID,95.9178,VALID,0,VALID,18.8629,VALID,43,VALID,1.50117,
2010-11-06, 00:20:04,VALID,917.799,VALID,0,VALID,95.9102,VALID,0,VALID,18.8824,VALID,35,VALID,1.24883,
2010-11-06, 00:21:04,VALID,917.807,VALID,0,VALID,95.8416,VALID,0,VALID,18.9019,VALID,35,VALID,0.945313,
2010-11-06, 00:22:04,VALID,917.766,VALID,0,VALID,95.9559,VALID,0,VALID,18.9409,VALID,35,VALID,0.640234,
2010-11-06, 00:23:04,VALID,917.77,VALID,0,VALID,95.9331,VALID,0.107441,VALID,18.9799,VALID,30,VALID,1.05391,
2010-11-06, 00:24:04,VALID,917.73,VALID,0,VALID,95.8416,VALID,0,VALID,19.0203,VALID,16,VALID,0.777344,
2010-11-06, 00:25:04,VALID,917.751,VALID,0,VALID,95.8568,VALID,0,VALID,19.0384,VALID,16,VALID,0.602344,
2010-11-06, 00:26:04,VALID,917.71,VALID,0,VALID,95.8873,VALID,0,VALID,19.0579,VALID,16,VALID,0.128516,
2010-11-06, 00:27:04,VALID,917.678,VALID,0,VALID,96.0398,VALID,0.107441,VALID,19.0774,VALID,16,VALID,1.32305,
2010-11-06, 00:28:04,VALID,917.64,VALID,0,VALID,95.8873,VALID,0.107441,VALID,19.0774,VALID,16,VALID,1.13242,
2010-11-06, 00:29:04,VALID,917.638,VALID,0,VALID,95.8035,VALID,0.107441,VALID,19.0774,VALID,16,VALID,1.15078,
2010-11-06, 00:30:04,VALID,917.596,VALID,0,VALID,95.651,VALID,0,VALID,19.0579,VALID,344,VALID,0.601563,
2010-11-06, 00:31:04,VALID,917.578,VALID,0,VALID,95.6815,VALID,0.107441,VALID,19.0774,VALID,344,VALID,0.569531,
2010-11-06, 00:32:04,VALID,917.547,VALID,0,VALID,95.7577,VALID,0.107441,VALID,19.0969,VALID,16,VALID,1.58164,
2010-11-06, 00:33:04,VALID,917.543,VALID,0,VALID,95.6357,VALID,0.107441,VALID,19.1164,VALID,23,VALID,1.27227,
2010-11-06, 00:34:04,VALID,917.52,VALID,0,VALID,95.3308,VALID,0,VALID,19.0969,VALID,23,VALID,0.351172,
2010-11-06, 00:35:04,VALID,917.545,VALID,0,VALID,95.3994,VALID,0.107441,VALID,19.1554,VALID,23,VALID,0.433594,
2010-11-06, 00:36:04,VALID,917.512,VALID,0,VALID,95.529,VALID,0.107441,VALID,19.1749,VALID,23,VALID,0.881641,
2010-11-06, 00:37:04,VALID,917.506,VALID,0,VALID,95.529,VALID,0.107441,VALID,19.1554,VALID,23,VALID,0.933203,
2010-11-06, 00:38:04,VALID,917.497,VALID,0,VALID,95.3461,VALID,0.107441,VALID,19.1554,VALID,23,VALID,0.608984,
2010-11-06, 00:39:04,VALID,917.529,VALID,0,VALID,95.0869,VALID,0,VALID,19.1749,VALID,23,VALID,0.261328,
2010-11-06, 00:40:04,VALID,917.528,VALID,0,VALID,95.1783,VALID,0.107441,VALID,19.1749,VALID,23,VALID,0.577734,
2010-11-06, 00:41:04,VALID,917.518,VALID,0,VALID,95.2927,VALID,0.107441,VALID,19.1749,VALID,23,VALID,0.855078,
2010-11-06, 00:42:04,VALID,917.572,VALID,0,VALID,95.1479,VALID,0.107441,VALID,19.1749,VALID,23,VALID,0.830078,
2010-11-06, 00:43:04,VALID,917.524,VALID,0,VALID,95.2165,VALID,0.107441,VALID,19.1944,VALID,23,VALID,1.10547,
2010-11-06, 00:44:04,VALID,917.518,VALID,0,VALID,94.9725,VALID,0,VALID,19.1944,VALID,23,VALID,0.495703,
2010-11-06, 00:45:04,VALID,917.534,VALID,0,VALID,94.8963,VALID,0,VALID,19.1944,VALID,23,VALID,0.403125,
2010-11-06, 00:46:04,VALID,917.522,VALID,0,VALID,95.2165,VALID,0.107441,VALID,19.2334,VALID,23,VALID,0.191016,
2010-11-06, 00:47:04,VALID,917.488,VALID,0,VALID,95.3156,VALID,0.107441,VALID,19.1749,VALID,23,VALID,1.16836,
2010-11-06, 00:48:04,VALID,917.465,VALID,0,VALID,95.4299,VALID,0.107441,VALID,19.1958,VALID,351,VALID,0.924609,
2010-11-06, 00:49:04,VALID,917.449,VALID,0,VALID,95.2698,VALID,0.107441,VALID,19.1749,VALID,351,VALID,0.775781,
2010-11-06, 00:50:04,VALID,917.398,VALID,0,VALID,95.1174,VALID,0.107441,VALID,19.1749,VALID,351,VALID,0.625,
2010-11-06, 00:51:04,VALID,917.392,VALID,0,VALID,95.125,VALID,0.107441,VALID,19.1554,VALID,351,VALID,0.777734,
2010-11-06, 00:52:04,VALID,917.377,VALID,0,VALID,94.9725,VALID,0.107441,VALID,19.1359,VALID,351,VALID,0.894922,
2010-11-06, 00:53:04,VALID,917.342,VALID,0,VALID,94.9573,VALID,0.107441,VALID,19.1359,VALID,351,VALID,0.771094,
2010-11-06, 00:54:04,VALID,917.316,VALID,0,VALID,95.0869,VALID,0.107441,VALID,19.1554,VALID,351,VALID,0.625391,
2010-11-06, 00:55:04,VALID,917.278,VALID,0,VALID,95.003,VALID,0.107441,VALID,19.1749,VALID,351,VALID,0.55,
2010-11-06, 00:56:04,VALID,917.278,VALID,0,VALID,95.0792,VALID,0,VALID,19.2139,VALID,351,VALID,0.554688,
2010-11-06, 00:57:04,VALID,917.238,VALID,0,VALID,95.1936,VALID,0.107441,VALID,19.2334,VALID,351,VALID,0.310156,
2010-11-06, 00:58:04,VALID,917.254,VALID,0,VALID,95.1936,VALID,0.107441,VALID,19.2334,VALID,351,VALID,0.396484,
2010-11-06, 00:59:04,VALID,917.268,VALID,0,VALID,95.0716,VALID,0.107441,VALID,19.2348,VALID,351,VALID,0.0800781,
2010-11-06, 01:00:04,VALID,917.258,VALID,0,VALID,95.1097,VALID,0.107441,VALID,19.1944,VALID,351,VALID,0.180859,
2010-11-06, 01:01:04,VALID,917.303,VALID,0,VALID,95.0183,VALID,0.107441,VALID,19.1554,VALID,351,VALID,0,
2010-11-06, 01:02:04,VALID,917.285,VALID,0,VALID,95.0488,VALID,0.107441,VALID,19.1749,VALID,351,VALID,0,
2010-11-06, 01:03:04,VALID,917.289,VALID,0,VALID,94.9801,VALID,0.107441,VALID,19.1359,VALID,351,VALID,0.269922,
2010-11-06, 01:04:04,VALID,917.268,VALID,0,VALID,95.0411,VALID,0,VALID,19.1359,VALID,351,VALID,0.274219,
2010-11-06, 01:05:04,VALID,917.255,VALID,0,VALID,95.2012,VALID,0.107441,VALID,19.1359,VALID,351,VALID,0,
2010-11-06, 01:06:04,VALID,917.226,VALID,0,VALID,95.2241,VALID,0.107441,VALID,19.1554,VALID,351,VALID,0.348828,
2010-11-06, 01:07:04,VALID,917.211,VALID,0,VALID,95.2775,VALID,0.107441,VALID,19.1359,VALID,351,VALID,0.117188,
2010-11-06, 01:08:04,VALID,917.167,VALID,0,VALID,95.2393,VALID,0.107441,VALID,19.0969,VALID,351,VALID,0.0457031,
2010-11-06, 01:09:04,VALID,917.133,VALID,0,VALID,94.9801,VALID,0.107441,VALID,19.0384,VALID,351,VALID,0.0664063,
2010-11-06, 01:10:04,VALID,917.121,VALID,0,VALID,95.0869,VALID,0.107441,VALID,19.0008,VALID,351,VALID,0.0171875,
2010-11-06, 01:11:04,VALID,917.113,VALID,0,VALID,95.2546,VALID,0,VALID,18.9604,VALID,351,VALID,0.454297,
2010-11-06, 01:12:04,VALID,917.094,VALID,0,VALID,95.5367,VALID,0.107441,VALID,18.9799,VALID,351,VALID,0.729297,
2010-11-06, 01:13:04,VALID,917.095,VALID,0,VALID,95.4071,VALID,0.107441,VALID,18.9799,VALID,351,VALID,0.714063,
2010-11-06, 01:14:04,VALID,917.099,VALID,0,VALID,94.8048,VALID,0,VALID,18.8629,VALID,360,VALID,1.11016,
2010-11-06, 01:15:04,VALID,917.091,VALID,0,VALID,95.1021,VALID,0.107441,VALID,18.8434,VALID,28,VALID,0.415625,
2010-11-06, 01:16:04,VALID,917.069,VALID,0,VALID,95.3461,VALID,0.107441,VALID,18.9409,VALID,15,VALID,1.39883,
2010-11-06, 01:17:04,VALID,917.053,VALID,0,VALID,95.1783,VALID,0,VALID,18.9799,VALID,15,VALID,0.337891,
2010-11-06, 01:18:04,VALID,917.016,VALID,0,VALID,95.1707,VALID,0.107441,VALID,19.0189,VALID,15,VALID,0.491797,
2010-11-06, 01:19:04,VALID,917.023,VALID,0,VALID,95.1631,VALID,0.107441,VALID,19.0774,VALID,360,VALID,1.5332,
2010-11-06, 01:20:04,VALID,916.999,VALID,0,VALID,94.7362,VALID,0.107441,VALID,19.1164,VALID,352,VALID,0.603125,
2010-11-06, 01:21:04,VALID,917.001,VALID,0,VALID,94.5304,VALID,0.107441,VALID,19.1554,VALID,352,VALID,0.471875,
2010-11-06, 01:22:04,VALID,916.993,VALID,0,VALID,94.3093,VALID,0,VALID,19.1554,VALID,352,VALID,0.145703,
2010-11-06, 01:23:04,VALID,916.99,VALID,0,VALID,94.2407,VALID,0.107441,VALID,19.1749,VALID,352,VALID,0,
2010-11-06, 01:24:04,VALID,917.023,VALID,0,VALID,94.1873,VALID,0,VALID,19.1554,VALID,352,VALID,0.00703125,
2010-11-06, 01:25:04,VALID,917.032,VALID,0,VALID,94.0501,VALID,0,VALID,19.1359,VALID,352,VALID,0.2625,
2010-11-06, 01:26:04,VALID,917.031,VALID,0,VALID,94.1492,VALID,0.107441,VALID,19.1554,VALID,352,VALID,0.381641,
2010-11-06, 01:27:04,VALID,917.067,VALID,0,VALID,94.0882,VALID,0,VALID,19.1554,VALID,352,VALID,0.102734,
2010-11-06, 01:28:04,VALID,917.031,VALID,0,VALID,93.9662,VALID,0,VALID,19.1568,VALID,352,VALID,0.0515625,
2010-11-06, 01:29:04,VALID,917.035,VALID,0,VALID,93.5698,VALID,0,VALID,19.1178,VALID,352,VALID,0,
2010-11-06, 01:30:04,VALID,916.997,VALID,0,VALID,93.5927,VALID,0,VALID,19.1178,VALID,352,VALID,0.389062,
2010-11-06, 01:31:04,VALID,916.953,VALID,0,VALID,92.5025,VALID,0,VALID,18.9799,VALID,352,VALID,0.941406,
2010-11-06, 01:32:04,VALID,916.96,VALID,0,VALID,93.5088,VALID,0,VALID,18.9034,VALID,51,VALID,1.35352,
2010-11-06, 01:33:04,VALID,916.888,VALID,0,VALID,94.7362,VALID,0,VALID,18.9229,VALID,51,VALID,1.28828,
2010-11-06, 01:34:04,VALID,916.869,VALID,0,VALID,94.9725,VALID,0,VALID,18.9229,VALID,51,VALID,1.29922,
2010-11-06, 01:35:04,VALID,916.872,VALID,0,VALID,94.9344,VALID,0,VALID,18.9229,VALID,51,VALID,1.09531,
2010-11-06, 01:36:04,VALID,916.859,VALID,0,VALID,94.7286,VALID,0,VALID,18.8824,VALID,51,VALID,0.728125,
2010-11-06, 01:37:04,VALID,916.829,VALID,0,VALID,94.8353,VALID,0,VALID,18.9048,VALID,51,VALID,0.682031,
2010-11-06, 01:38:04,VALID,916.85,VALID,0,VALID,94.881,VALID,0,VALID,18.9034,VALID,51,VALID,0.323047,
2010-11-06, 01:39:04,VALID,916.825,VALID,0,VALID,94.9649,VALID,0,VALID,18.8824,VALID,51,VALID,0.619141,
2010-11-06, 01:40:04,VALID,916.827,VALID,0,VALID,94.9801,VALID,0,VALID,18.8644,VALID,51,VALID,0.516797,
2010-11-06, 01:41:04,VALID,916.789,VALID,0,VALID,95.1936,VALID,0,VALID,18.9034,VALID,51,VALID,0.869922,
2010-11-06, 01:42:04,VALID,916.745,VALID,0,VALID,95.4147,VALID,0,VALID,18.9409,VALID,51,VALID,0.808203,
2010-11-06, 01:43:04,VALID,916.723,VALID,0,VALID,95.4375,VALID,0,VALID,18.9604,VALID,51,VALID,0.783203,
2010-11-06, 01:44:04,VALID,916.724,VALID,0,VALID,95.186,VALID,0,VALID,18.9814,VALID,51,VALID,0.828125,
2010-11-06, 01:45:04,VALID,916.724,VALID,0,VALID,94.8505,VALID,0.107441,VALID,18.9229,VALID,51,VALID,0.545703,
2010-11-06, 01:46:04,VALID,916.736,VALID,0,VALID,94.5532,VALID,0,VALID,18.8644,VALID,142,VALID,0.894141,
2010-11-06, 01:47:04,VALID,916.761,VALID,0,VALID,94.5304,VALID,0,VALID,18.7279,VALID,142,VALID,0.747656,
2010-11-06, 01:48:04,VALID,916.8,VALID,0,VALID,94.7896,VALID,0,VALID,18.629,VALID,142,VALID,0.993359,
2010-11-06, 01:49:04,VALID,916.797,VALID,0,VALID,95.125,VALID,0,VALID,18.5525,VALID,142,VALID,0.901563,
2010-11-06, 01:50:04,VALID,916.796,VALID,0,VALID,95.3994,VALID,0,VALID,18.5135,VALID,142,VALID,0.616406,
2010-11-06, 01:51:04,VALID,916.784,VALID,0,VALID,95.7272,VALID,0,VALID,18.5525,VALID,142,VALID,0.868359,
2010-11-06, 01:52:04,VALID,916.763,VALID,0,VALID,95.895,VALID,0,VALID,18.533,VALID,142,VALID,0.760938,
2010-11-06, 01:53:04,VALID,916.757,VALID,0,VALID,96.0627,VALID,0,VALID,18.5135,VALID,142,VALID,0.651563,
2010-11-06, 01:54:04,VALID,916.767,VALID,0,VALID,96.1236,VALID,0,VALID,18.494,VALID,142,VALID,0.621484,
2010-11-06, 01:55:04,VALID,916.74,VALID,0,VALID,96.2456,VALID,0,VALID,18.533,VALID,142,VALID,0.93125,
2010-11-06, 01:56:04,VALID,916.685,VALID,0,VALID,96.36,VALID,0,VALID,18.5525,VALID,142,VALID,0.816406,
2010-11-06, 01:57:04,VALID,916.682,VALID,0,VALID,96.3676,VALID,0,VALID,18.533,VALID,142,VALID,0.96875,
2010-11-06, 01:58:04,VALID,916.649,VALID,0,VALID,96.4362,VALID,0,VALID,18.5135,VALID,142,VALID,1.19922,
2010-11-06, 01:59:04,VALID,916.628,VALID,0,VALID,96.5811,VALID,0,VALID,18.5914,VALID,142,VALID,1.02695,
2010-11-06, 02:00:04,VALID,916.621,VALID,0,VALID,96.4057,VALID,0,VALID,18.5525,VALID,142,VALID,0.917188,
2010-11-06, 02:01:04,VALID,916.631,VALID,0,VALID,96.5658,VALID,0,VALID,18.5914,VALID,142,VALID,0.675,
2010-11-06, 02:02:04,VALID,916.632,VALID,0,VALID,96.5811,VALID,0,VALID,18.6109,VALID,142,VALID,0.433594,
2010-11-06, 02:03:04,VALID,916.591,VALID,0,VALID,96.4743,VALID,0,VALID,18.6304,VALID,142,VALID,0.218359,
2010-11-06, 02:04:04,VALID,916.586,VALID,0,VALID,96.5124,VALID,0,VALID,18.6109,VALID,142,VALID,0.28125,
2010-11-06, 02:05:04,VALID,916.557,VALID,0,VALID,96.4667,VALID,0,VALID,18.6109,VALID,142,VALID,0.4375,
2010-11-06, 02:06:04,VALID,916.528,VALID,0,VALID,96.4819,VALID,0,VALID,18.5914,VALID,142,VALID,0.289063,
2010-11-06, 02:07:04,VALID,916.54,VALID,0,VALID,96.5353,VALID,0,VALID,18.6304,VALID,142,VALID,0.372266,
2010-11-06, 02:08:04,VALID,916.493,VALID,0,VALID,96.5201,VALID,0,VALID,18.6304,VALID,142,VALID,0.533594,
2010-11-06, 02:09:04,VALID,916.482,VALID,0,VALID,96.5734,VALID,0,VALID,18.6903,VALID,142,VALID,0.380469,
2010-11-06, 02:10:04,VALID,916.456,VALID,0,VALID,96.5887,VALID,0,VALID,18.7084,VALID,142,VALID,0.0679687,
2010-11-06, 02:11:04,VALID,916.434,VALID,0,VALID,96.5582,VALID,0,VALID,18.7084,VALID,142,VALID,0,
2010-11-06, 02:12:04,VALID,916.421,VALID,0,VALID,96.5277,VALID,0,VALID,18.7279,VALID,142,VALID,0,
2010-11-06, 02:13:04,VALID,916.371,VALID,0,VALID,96.4591,VALID,0,VALID,18.6875,VALID,142,VALID,0,
2010-11-06, 02:14:04,VALID,916.36,VALID,0,VALID,96.5658,VALID,0,VALID,18.7474,VALID,142,VALID,0,
2010-11-06, 02:15:04,VALID,916.325,VALID,0,VALID,96.6344,VALID,0,VALID,18.8449,VALID,142,VALID,0,
2010-11-06, 02:16:04,VALID,916.343,VALID,0,VALID,96.5734,VALID,0,VALID,18.8629,VALID,142,VALID,0,
2010-11-06, 02:17:04,VALID,916.333,VALID,0,VALID,96.36,VALID,0,VALID,18.8644,VALID,142,VALID,0,
2010-11-06, 02:18:04,VALID,916.321,VALID,0,VALID,96.1389,VALID,0,VALID,18.8059,VALID,142,VALID,0.4,
2010-11-06, 02:19:04,VALID,916.299,VALID,0,VALID,95.9712,VALID,0,VALID,18.8059,VALID,142,VALID,0.306641,
2010-11-06, 02:20:04,VALID,916.302,VALID,0,VALID,95.8568,VALID,0,VALID,18.7864,VALID,142,VALID,0.470313,
2010-11-06, 02:21:04,VALID,916.307,VALID,0,VALID,95.8721,VALID,0,VALID,18.8268,VALID,142,VALID,0.208203,
2010-11-06, 02:22:04,VALID,916.3,VALID,0,VALID,95.8263,VALID,0,VALID,18.8059,VALID,142,VALID,0.220703,
2010-11-06, 02:23:04,VALID,916.271,VALID,0,VALID,95.7044,VALID,0,VALID,18.7864,VALID,142,VALID,0.521875,
2010-11-06, 02:24:04,VALID,916.246,VALID,0,VALID,95.5443,VALID,0,VALID,18.7669,VALID,142,VALID,0.371094,
2010-11-06, 02:25:04,VALID,916.257,VALID,0,VALID,95.6739,VALID,0,VALID,18.746,VALID,142,VALID,0.340625,
2010-11-06, 02:26:04,VALID,916.226,VALID,0,VALID,95.7806,VALID,0,VALID,18.7669,VALID,142,VALID,0,
2010-11-06, 02:27:04,VALID,916.226,VALID,0,VALID,95.7958,VALID,0,VALID,18.8059,VALID,142,VALID,0,
2010-11-06, 02:28:04,VALID,916.246,VALID,0,VALID,95.8721,VALID,0,VALID,18.8254,VALID,142,VALID,0,
2010-11-06, 02:29:04,VALID,916.24,VALID,0,VALID,95.9178,VALID,0,VALID,18.8449,VALID,142,VALID,0,
2010-11-06, 02:30:04,VALID,916.247,VALID,0,VALID,95.895,VALID,0,VALID,18.8839,VALID,142,VALID,0,
2010-11-06, 02:31:04,VALID,916.248,VALID,0,VALID,95.8797,VALID,0,VALID,18.9034,VALID,142,VALID,0,
2010-11-06, 02:32:04,VALID,916.238,VALID,0,VALID,95.6434,VALID,0,VALID,18.8644,VALID,142,VALID,0,
2010-11-06, 02:33:04,VALID,916.223,VALID,0,VALID,95.5824,VALID,0,VALID,18.9034,VALID,142,VALID,0,
2010-11-06, 02:34:04,VALID,916.248,VALID,0,VALID,95.4299,VALID,0,VALID,18.9034,VALID,142,VALID,0.0429688,
2010-11-06, 02:35:04,VALID,916.234,VALID,0,VALID,95.2851,VALID,0,VALID,18.8839,VALID,142,VALID,0.190625,
2010-11-06, 02:36:04,VALID,916.171,VALID,0,VALID,95.4071,VALID,0,VALID,18.9034,VALID,142,VALID,0.440234,
2010-11-06, 02:37:04,VALID,916.203,VALID,0,VALID,95.6205,VALID,0,VALID,18.9424,VALID,142,VALID,0.443359,
2010-11-06, 02:38:04,VALID,916.17,VALID,0,VALID,95.3156,VALID,0,VALID,18.9034,VALID,142,VALID,0.325391,
2010-11-06, 02:39:05,VALID,916.175,VALID,0,VALID,95.1555,VALID,0,VALID,18.8644,VALID,142,VALID,0.150391,
2010-11-06, 02:40:05,VALID,916.193,VALID,0,VALID,95.247,VALID,0,VALID,18.8449,VALID,142,VALID,0.170312,
2010-11-06, 02:41:05,VALID,916.198,VALID,0,VALID,95.6053,VALID,0,VALID,18.9034,VALID,142,VALID,0.526563,
2010-11-06, 02:42:05,VALID,916.22,VALID,0,VALID,95.5748,VALID,0,VALID,18.8824,VALID,142,VALID,0.298047,
2010-11-06, 02:43:05,VALID,916.211,VALID,0,VALID,95.4375,VALID,0,VALID,18.8449,VALID,142,VALID,0.198828,
2010-11-06, 02:44:05,VALID,916.202,VALID,0,VALID,95.6815,VALID,0,VALID,18.8644,VALID,142,VALID,0.373437,
2010-11-06, 02:45:05,VALID,916.219,VALID,0,VALID,95.5595,VALID,0,VALID,18.8254,VALID,142,VALID,0.502734,
2010-11-06, 02:46:05,VALID,916.213,VALID,0,VALID,95.9941,VALID,0,VALID,18.9229,VALID,2,VALID,1.24883,
2010-11-06, 02:47:05,VALID,916.222,VALID,0,VALID,96.0093,VALID,0,VALID,18.9604,VALID,19,VALID,1.00117,
2010-11-06, 02:48:05,VALID,916.207,VALID,0,VALID,95.7958,VALID,0,VALID,19.0023,VALID,27,VALID,0.935547,
2010-11-06, 02:49:05,VALID,916.224,VALID,0,VALID,95.712,VALID,0,VALID,19.0398,VALID,27,VALID,1.31914,
2010-11-06, 02:50:05,VALID,916.201,VALID,0,VALID,95.5748,VALID,0,VALID,19.0398,VALID,27,VALID,0.884375,
2010-11-06, 02:51:05,VALID,916.226,VALID,0,VALID,95.3842,VALID,0,VALID,19.0398,VALID,27,VALID,1.0418,
2010-11-06, 02:52:05,VALID,916.223,VALID,0,VALID,95.4223,VALID,0,VALID,19.0788,VALID,27,VALID,1.1625,
2010-11-06, 02:53:05,VALID,916.173,VALID,0,VALID,95.3384,VALID,0,VALID,19.0593,VALID,27,VALID,1.07187,
2010-11-06, 02:54:05,VALID,916.182,VALID,0,VALID,95.3613,VALID,0,VALID,19.0788,VALID,27,VALID,1.05781,
2010-11-06, 02:55:05,VALID,916.18,VALID,0,VALID,95.4299,VALID,0,VALID,19.0788,VALID,27,VALID,0.699609,
2010-11-06, 02:56:05,VALID,916.175,VALID,0,VALID,95.5671,VALID,0,VALID,19.0983,VALID,27,VALID,0.848828,
2010-11-06, 02:57:05,VALID,916.157,VALID,0,VALID,95.5748,VALID,0,VALID,19.1178,VALID,27,VALID,1.13945,
2010-11-06, 02:58:05,VALID,916.161,VALID,0,VALID,95.5595,VALID,0,VALID,19.1178,VALID,27,VALID,0.467578,
2010-11-06, 02:59:05,VALID,916.139,VALID,0,VALID,95.5824,VALID,0,VALID,19.1373,VALID,27,VALID,0.325,
2010-11-06, 03:00:05,VALID,916.11,VALID,0,VALID,95.651,VALID,0,VALID,19.1178,VALID,6,VALID,0.806641,
2010-11-06, 03:01:05,VALID,916.105,VALID,0,VALID,95.6815,VALID,0,VALID,19.1373,VALID,3,VALID,0.525391,
2010-11-06, 03:02:05,VALID,916.075,VALID,0,VALID,95.6891,VALID,0,VALID,19.1178,VALID,3,VALID,0.548828,
2010-11-06, 03:03:05,VALID,916.072,VALID,0,VALID,95.7272,VALID,0,VALID,19.1373,VALID,3,VALID,0.835938,
2010-11-06, 03:04:05,VALID,916.028,VALID,0,VALID,95.7882,VALID,0,VALID,19.1373,VALID,3,VALID,1.08906,
2010-11-06, 03:05:05,VALID,916.049,VALID,0,VALID,95.7654,VALID,0,VALID,19.1373,VALID,3,VALID,0.955859,
2010-11-06, 03:06:05,VALID,916.045,VALID,0,VALID,95.7501,VALID,0,VALID,19.1568,VALID,3,VALID,0.500781,
2010-11-06, 03:07:05,VALID,916.027,VALID,0,VALID,95.8187,VALID,0,VALID,19.1763,VALID,3,VALID,0.438281,
2010-11-06, 03:08:05,VALID,916.013,VALID,0,VALID,95.773,VALID,0,VALID,19.1763,VALID,3,VALID,0.565234,
2010-11-06, 03:09:05,VALID,916.03,VALID,0,VALID,95.7272,VALID,0,VALID,19.2153,VALID,3,VALID,0.958984,
2010-11-06, 03:10:05,VALID,916.006,VALID,0,VALID,95.7196,VALID,0.107441,VALID,19.2153,VALID,3,VALID,0.392188,
2010-11-06, 03:11:05,VALID,915.958,VALID,0,VALID,95.7044,VALID,0,VALID,19.2153,VALID,3,VALID,0.907031,
2010-11-06, 03:12:05,VALID,915.94,VALID,0,VALID,95.651,VALID,0,VALID,19.2348,VALID,3,VALID,0.510547,
2010-11-06, 03:13:05,VALID,915.965,VALID,0,VALID,95.6434,VALID,0,VALID,19.2153,VALID,3,VALID,0.483594,
2010-11-06, 03:14:05,VALID,915.936,VALID,0,VALID,95.6434,VALID,0,VALID,19.2153,VALID,3,VALID,0.422266,
2010-11-06, 03:15:05,VALID,915.946,VALID,0,VALID,95.6662,VALID,0,VALID,19.1958,VALID,3,VALID,0.331641,
2010-11-06, 03:16:05,VALID,915.954,VALID,0,VALID,95.6891,VALID,0,VALID,19.1958,VALID,3,VALID,0.378516,
2010-11-06, 03:17:05,VALID,915.941,VALID,0,VALID,95.7501,VALID,0,VALID,19.1568,VALID,3,VALID,0.572656,
2010-11-06, 03:18:05,VALID,915.978,VALID,0,VALID,95.8416,VALID,0,VALID,19.1568,VALID,3,VALID,0.496875,
2010-11-06, 03:19:05,VALID,916.004,VALID,0,VALID,95.8721,VALID,0,VALID,19.1178,VALID,3,VALID,0.602344,
2010-11-06, 03:20:05,VALID,915.97,VALID,0,VALID,95.9483,VALID,0,VALID,19.0969,VALID,3,VALID,0.402344,
2010-11-06, 03:21:05,VALID,915.964,VALID,0,VALID,96.0398,VALID,0,VALID,19.1178,VALID,3,VALID,0.280859,
2010-11-06, 03:22:05,VALID,915.96,VALID,0,VALID,96.1236,VALID,0,VALID,19.1178,VALID,3,VALID,0.726172,
2010-11-06, 03:23:05,VALID,915.961,VALID,0,VALID,96.1846,VALID,0,VALID,19.1178,VALID,3,VALID,0.167578,
2010-11-06, 03:24:05,VALID,915.902,VALID,0,VALID,96.2151,VALID,0,VALID,19.1178,VALID,3,VALID,0.00703125,
2010-11-06, 03:25:05,VALID,915.892,VALID,0,VALID,96.2151,VALID,0,VALID,19.0983,VALID,3,VALID,0.919141,
2010-11-06, 03:26:05,VALID,915.907,VALID,0,VALID,96.2533,VALID,0,VALID,19.0788,VALID,3,VALID,0.506641,
2010-11-06, 03:27:05,VALID,915.92,VALID,0,VALID,96.3066,VALID,0,VALID,19.0384,VALID,3,VALID,0.201953,
2010-11-06, 03:28:05,VALID,915.925,VALID,0,VALID,96.3219,VALID,0,VALID,19.0384,VALID,3,VALID,0.325,
2010-11-06, 03:29:05,VALID,915.91,VALID,0,VALID,96.3524,VALID,0,VALID,19.0384,VALID,4,VALID,0.749219,
2010-11-06, 03:30:05,VALID,915.908,VALID,0,VALID,96.4133,VALID,0,VALID,19.0398,VALID,3,VALID,0.748047,
2010-11-06, 03:31:05,VALID,915.894,VALID,0,VALID,96.4667,VALID,0,VALID,19.0384,VALID,4,VALID,0.500391,
2010-11-06, 03:32:05,VALID,915.922,VALID,0,VALID,96.5048,VALID,0,VALID,19.0398,VALID,3,VALID,0.0234375,
2010-11-06, 03:33:05,VALID,915.918,VALID,0,VALID,96.5124,VALID,0,VALID,19.0398,VALID,4,VALID,0.184766,
2010-11-06, 03:34:05,VALID,915.879,VALID,0,VALID,96.5429,VALID,0,VALID,19.0189,VALID,3,VALID,0.0488281,
2010-11-06, 03:35:05,VALID,915.885,VALID,0,VALID,96.5811,VALID,0,VALID,19.0189,VALID,3,VALID,0.355078,
2010-11-06, 03:36:05,VALID,915.843,VALID,0,VALID,96.6268,VALID,0.107441,VALID,19.0788,VALID,3,VALID,0.321094,
2010-11-06, 03:37:05,VALID,915.82,VALID,0,VALID,96.642,VALID,0,VALID,19.0579,VALID,3,VALID,0.814844,
2010-11-06, 03:38:05,VALID,915.82,VALID,0,VALID,96.6497,VALID,0,VALID,19.0579,VALID,4,VALID,0.952344,
2010-11-06, 03:39:05,VALID,915.792,VALID,0,VALID,96.6649,VALID,0,VALID,19.0983,VALID,3,VALID,0.69375,
2010-11-06, 03:40:05,VALID,915.813,VALID,0,VALID,96.6802,VALID,0,VALID,19.1178,VALID,4,VALID,0.578516,
2010-11-06, 03:41:05,VALID,915.809,VALID,0,VALID,96.703,VALID,0,VALID,19.0969,VALID,3,VALID,0.582422,
2010-11-06, 03:42:05,VALID,915.778,VALID,0,VALID,96.7107,VALID,0,VALID,19.1178,VALID,3,VALID,0.201562,
2010-11-06, 03:43:05,VALID,915.793,VALID,0,VALID,96.6954,VALID,0,VALID,19.1164,VALID,3,VALID,0,
2010-11-06, 03:44:05,VALID,915.749,VALID,0,VALID,96.703,VALID,0,VALID,19.1178,VALID,3,VALID,0,